Location: ???????
(55.4362°N, 38.1183°E)
Time: 03:51:37
(UTC+00:00)

Cosmos 1602 Rocket - Pass Details

Date: 17 June 2021
Orbit: 602 x 634 km, 82.5° (Epoch: 26 July)

Event Time Altitude Azimuth Distance (km) Brightness Sun altitude
Exits shadow 21:29:44 16° 175° (S) 1,666 5.1 -11.2°
Maximum altitude 21:33:16 63° 97° (E) 713 3.8 -11.2°
Drops below altitude 10° 21:37:43 10° 17° (NNE) 2,032 7.6 -11.1°
Sets 21:39:59 0° 14° (NNE) 2,942 8.9 -11.1°
